Location: Frydek-Mistek
(49.6830°N, 18.3330°E)
Time: 10:06:17
(UTC+02:00)

Courier 1B Rocket - All Passes

Search period start: 21 September 2014 00:00
Search period end: 01 October 2014 00:00
Orbit: 921 x 1202 km, 28.2° (Epoch: 18 September)

Date Brightness Start Highest point End Pass type
(mag) Time Alt. Az. Time Alt. Az. Time Alt. Az.
21 Sep - 18:23:01 10° SSW 18:25:32 12° S 18:28:05 10° SSE daylight
21 Sep - 20:15:34 10° SSW 20:17:36 11° S 20:19:40 10° S visible
22 Sep - 17:23:49 10° S 17:24:58 10° S 17:26:08 10° SSE daylight
22 Sep - 19:14:31 10° SSW 19:16:59 12° S 19:19:31 10° SSE visible
23 Sep - 18:14:02 10° SSW 18:16:24 12° S 18:18:50 10° SSE daylight
24 Sep - 17:14:06 10° S 17:15:51 11° S 17:17:37 10° SSE daylight
24 Sep - 19:07:01 10° SSW 19:07:52 10° S 19:08:43 10° S visible
25 Sep - 18:05:41 10° SSW 18:07:18 11° S 18:08:57 10° S daylight
26 Sep - 17:05:14 10° SSW 17:06:46 11° S 17:08:19 10° SSE daylight
27 Sep - 16:05:52 10° S 16:06:15 10° S 16:06:39 10° S daylight
